Time,TemperatureF,DewpointF,PressureIn,WindDirection,WindDirectionDegrees,WindSpeedMPH,WindSpeedGustMPH,Humidity,HourlyPrecipIn,Conditions,Clouds,dailyrainin,SolarRadiationWatts/m^2,SoftwareType,DateUTC
2013-06-03 00:01:00,61.3,56.7,29.65,WNW,296,1.0,1.0,85,0.00,,,0.00,0,WeatherCatV1.02B3,2013-06-03 07:01:00,
2013-06-03 00:06:00,61.3,56.7,29.65,WNW,294,1.0,1.0,85,0.00,,,0.00,0,WeatherCatV1.02B3,2013-06-03 07:06:00,
2013-06-03 00:11:00,61.1,56.9,29.65,WNW,285,1.0,1.0,86,0.00,,,0.00,0,WeatherCatV1.02B3,2013-06-03 07:11:00,
2013-06-03 00:16:00,61.1,56.9,29.65,East,94,1.0,1.0,86,0.00,,,0.00,0,WeatherCatV1.02B3,2013-06-03 07:16:00,
2013-06-03 00:21:00,61.0,56.8,29.65,East,94,0.0,0.0,86,0.00,,,0.00,0,WeatherCatV1.02B3,2013-06-03 07:21:00,
2013-06-03 00:26:00,60.9,56.7,29.65,North,5,0.0,0.0,86,0.00,,,0.00,0,WeatherCatV1.02B3,2013-06-03 07:26:00,
2013-06-03 00:31:00,60.8,56.9,29.65,WNW,302,0.0,1.0,87,0.00,,,0.00,0,WeatherCatV1.02B3,2013-06-03 07:31:00,
2013-06-03 00:36:00,60.7,56.8,29.65,West,263,0.0,1.0,87,0.00,,,0.00,0,WeatherCatV1.02B3,2013-06-03 07:36:00,
2013-06-03 00:41:00,60.8,56.9,29.65,West,263,1.0,1.0,87,0.00,,,0.00,0,WeatherCatV1.02B3,2013-06-03 07:41:00,
2013-06-03 00:46:00,60.8,56.9,29.65,WNW,287,0.0,1.0,87,0.00,,,0.00,0,WeatherCatV1.02B3,2013-06-03 07:46:00,
2013-06-03 00:51:00,60.9,57.0,29.65,WNW,287,0.0,0.0,87,0.00,,,0.00,0,WeatherCatV1.02B3,2013-06-03 07:51:00,
2013-06-03 00:56:00,60.7,56.8,29.65,West,280,0.0,1.0,87,0.00,,,0.00,0,WeatherCatV1.02B3,2013-06-03 07:56:00,
2013-06-03 01:01:00,60.5,56.6,29.65,NNW,344,0.0,0.0,87,0.00,,,0.00,0,WeatherCatV1.02B3,2013-06-03 08:01:00,
2013-06-03 01:06:00,60.3,56.7,29.65,SSE,166,0.0,1.0,88,0.00,,,0.00,0,WeatherCatV1.02B3,2013-06-03 08:06:00,
2013-06-03 01:11:00,60.3,56.7,29.65,West,263,1.0,2.0,88,0.00,,,0.00,0,WeatherCatV1.02B3,2013-06-03 08:11:00,
2013-06-03 01:16:00,60.2,56.6,29.65,West,267,1.0,2.0,88,0.00,,,0.00,0,WeatherCatV1.02B3,2013-06-03 08:16:00,
2013-06-03 01:21:00,60.0,56.7,29.65,West,270,3.0,3.0,89,0.00,,,0.00,0,WeatherCatV1.02B3,2013-06-03 08:21:00,
2013-06-03 01:26:00,60.0,56.7,29.65,West,270,2.0,3.0,89,0.00,,,0.00,0,WeatherCatV1.02B3,2013-06-03 08:26:00,
2013-06-03 01:31:00,59.9,56.6,29.65,West,261,2.0,3.0,89,0.00,,,0.00,0,WeatherCatV1.02B3,2013-06-03 08:31:00,
2013-06-03 01:37:00,59.8,56.9,29.65,West,267,1.0,3.0,90,0.00,,,0.00,0,WeatherCatV1.02B3,2013-06-03 08:37:00,
2013-06-03 01:42:00,59.9,57.0,29.65,West,276,1.0,2.0,90,0.00,,,0.00,0,WeatherCatV1.02B3,2013-06-03 08:42:00,
2013-06-03 01:47:00,60.0,57.1,29.65,West,276,0.0,1.0,90,0.00,,,0.00,0,WeatherCatV1.02B3,2013-06-03 08:47:00,
2013-06-03 01:52:00,60.2,56.9,29.65,West,276,0.0,1.0,89,0.00,,,0.00,0,WeatherCatV1.02B3,2013-06-03 08:52:00,
2013-06-03 01:57:00,60.2,56.9,29.65,West,276,0.0,1.0,89,0.00,,,0.00,0,WeatherCatV1.02B3,2013-06-03 08:57:00,
2013-06-03 02:02:00,60.3,57.0,29.65,WNW,294,1.0,3.0,89,0.00,,,0.00,0,WeatherCatV1.02B3,2013-06-03 09:02:00,
2013-06-03 02:07:00,60.3,57.0,29.65,WNW,294,0.0,0.0,89,0.00,,,0.00,0,WeatherCatV1.02B3,2013-06-03 09:07:00,
2013-06-03 02:12:00,60.5,57.2,29.65,WNW,294,0.0,0.0,89,0.00,,,0.00,0,WeatherCatV1.02B3,2013-06-03 09:12:00,
2013-06-03 02:17:00,60.5,56.9,29.65,WNW,294,0.0,0.0,88,0.00,,,0.00,0,WeatherCatV1.02B3,2013-06-03 09:17:00,
2013-06-03 02:22:00,60.5,56.9,29.65,WNW,294,0.0,0.0,88,0.00,,,0.00,0,WeatherCatV1.02B3,2013-06-03 09:22:00,
2013-06-03 02:27:00,60.6,57.0,29.65,WNW,294,0.0,0.0,88,0.00,,,0.00,0,WeatherCatV1.02B3,2013-06-03 09:27:00,
2013-06-03 02:32:00,60.7,57.1,29.65,WNW,294,0.0,0.0,88,0.00,,,0.00,0,WeatherCatV1.02B3,2013-06-03 09:32:00,
2013-06-03 02:37:00,60.8,57.2,29.65,WNW,294,0.0,0.0,88,0.00,,,0.00,0,WeatherCatV1.02B3,2013-06-03 09:37:00,
2013-06-03 02:42:00,60.9,57.3,29.65,WNW,294,0.0,0.0,88,0.00,,,0.00,0,WeatherCatV1.02B3,2013-06-03 09:42:00,
2013-06-03 02:47:00,60.9,57.3,29.65,WNW,294,0.0,0.0,88,0.00,,,0.00,0,WeatherCatV1.02B3,2013-06-03 09:47:00,
2013-06-03 02:52:00,60.9,57.3,29.65,WNW,294,0.0,0.0,88,0.00,,,0.00,0,WeatherCatV1.02B3,2013-06-03 09:52:00,
2013-06-03 02:57:00,60.8,57.2,29.65,WNW,294,0.0,0.0,88,0.00,,,0.00,0,WeatherCatV1.02B3,2013-06-03 09:57:00,
2013-06-03 03:02:00,60.8,57.2,29.65,WNW,294,0.0,0.0,88,0.00,,,0.00,0,WeatherCatV1.02B3,2013-06-03 10:02:00,
2013-06-03 03:07:00,60.9,57.3,29.65,WNW,294,0.0,0.0,88,0.00,,,0.00,0,WeatherCatV1.02B3,2013-06-03 10:07:00,
2013-06-03 03:12:00,60.9,57.3,29.65,WNW,294,0.0,0.0,88,0.00,,,0.00,0,WeatherCatV1.02B3,2013-06-03 10:12:00,
2013-06-03 03:17:00,60.9,57.3,29.65,WNW,294,0.0,0.0,88,0.00,,,0.00,0,WeatherCatV1.02B3,2013-06-03 10:17:00,
2013-06-03 03:22:00,60.9,57.0,29.65,WNW,294,0.0,0.0,87,0.00,,,0.00,0,WeatherCatV1.02B3,2013-06-03 10:22:00,
2013-06-03 03:27:00,60.9,57.3,29.65,WNW,294,0.0,0.0,88,0.00,,,0.00,0,WeatherCatV1.02B3,2013-06-03 10:27:00,
2013-06-03 03:32:00,60.9,57.3,29.65,WNW,294,0.0,0.0,88,0.00,,,0.00,0,WeatherCatV1.02B3,2013-06-03 10:32:00,
2013-06-03 03:37:00,60.9,57.3,29.65,WNW,294,0.0,0.0,88,0.00,,,0.00,0,WeatherCatV1.02B3,2013-06-03 10:37:00,
2013-06-03 03:42:00,60.9,57.3,29.65,WNW,294,0.0,0.0,88,0.00,,,0.00,0,WeatherCatV1.02B3,2013-06-03 10:42:00,
2013-06-03 03:47:00,60.9,57.3,29.65,WNW,294,0.0,0.0,88,0.00,,,0.00,0,WeatherCatV1.02B3,2013-06-03 10:47:00,
2013-06-03 03:52:00,60.9,57.3,29.65,WNW,294,0.0,0.0,88,0.00,,,0.00,0,WeatherCatV1.02B3,2013-06-03 10:52:00,
2013-06-03 03:57:00,60.8,57.2,29.65,WNW,294,0.0,0.0,88,0.00,,,0.00,0,WeatherCatV1.02B3,2013-06-03 10:57:00,
2013-06-03 04:02:00,60.9,57.3,29.65,WNW,298,0.0,0.0,88,0.00,,,0.00,0,WeatherCatV1.02B3,2013-06-03 11:02:00,
2013-06-03 04:07:00,60.8,57.2,29.65,WNW,298,0.0,1.0,88,0.00,,,0.00,0,WeatherCatV1.02B3,2013-06-03 11:07:00,
2013-06-03 04:12:00,60.7,57.4,29.65,WNW,298,0.0,0.0,89,0.00,,,0.00,0,WeatherCatV1.02B3,2013-06-03 11:12:00,
2013-06-03 04:17:00,60.6,57.3,29.65,WNW,298,0.0,0.0,89,0.00,,,0.00,0,WeatherCatV1.02B3,2013-06-03 11:17:00,
2013-06-03 04:22:00,60.5,57.5,29.65,WNW,298,0.0,0.0,90,0.00,,,0.00,0,WeatherCatV1.02B3,2013-06-03 11:22:00,
2013-06-03 04:27:00,60.5,57.5,29.65,WNW,298,0.0,0.0,90,0.00,,,0.00,0,WeatherCatV1.02B3,2013-06-03 11:27:00,
2013-06-03 04:32:00,60.6,57.6,29.65,WNW,298,0.0,0.0,90,0.00,,,0.00,0,WeatherCatV1.02B3,2013-06-03 11:32:00,
2013-06-03 04:37:00,60.6,57.6,29.65,WNW,298,1.0,1.0,90,0.00,,,0.00,0,WeatherCatV1.02B3,2013-06-03 11:37:00,
2013-06-03 04:42:00,60.5,57.5,29.65,WNW,298,0.0,1.0,90,0.00,,,0.00,0,WeatherCatV1.02B3,2013-06-03 11:42:00,
2013-06-03 04:47:00,60.5,57.5,29.65,WNW,298,0.0,1.0,90,0.00,,,0.00,0,WeatherCatV1.02B3,2013-06-03 11:47:00,
2013-06-03 04:52:00,60.4,57.5,29.65,WNW,298,0.0,0.0,90,0.00,,,0.00,0,WeatherCatV1.02B3,2013-06-03 11:52:00,
2013-06-03 04:57:00,60.4,57.5,29.65,WNW,298,0.0,0.0,90,0.00,,,0.00,0,WeatherCatV1.02B3,2013-06-03 11:57:00,
2013-06-03 05:02:00,60.4,57.5,29.65,WNW,298,0.0,0.0,90,0.00,,,0.00,0,WeatherCatV1.02B3,2013-06-03 12:02:00,
2013-06-03 05:07:00,60.4,57.5,29.65,WNW,298,0.0,0.0,90,0.00,,,0.00,0,WeatherCatV1.02B3,2013-06-03 12:07:00,
2013-06-03 05:12:00,60.5,57.5,29.65,WNW,298,0.0,0.0,90,0.00,,,0.00,0,WeatherCatV1.02B3,2013-06-03 12:12:00,
2013-06-03 05:17:00,60.4,57.5,29.65,WNW,298,0.0,0.0,90,0.00,,,0.00,0,WeatherCatV1.02B3,2013-06-03 12:17:00,
2013-06-03 05:22:00,60.4,57.5,29.65,WNW,298,0.0,1.0,90,0.00,,,0.00,0,WeatherCatV1.02B3,2013-06-03 12:22:00,
2013-06-03 05:27:00,60.3,57.7,29.65,WNW,285,0.0,0.0,91,0.00,,,0.00,0,WeatherCatV1.02B3,2013-06-03 12:27:00,
2013-06-03 05:32:00,60.2,57.6,29.65,WNW,285,1.0,1.0,91,0.00,,,0.00,0,WeatherCatV1.02B3,2013-06-03 12:32:00,
2013-06-03 05:37:00,60.1,57.5,29.65,WNW,285,0.0,1.0,91,0.00,,,0.00,0,WeatherCatV1.02B3,2013-06-03 12:37:00,
2013-06-03 05:42:00,60.1,57.5,29.65,WNW,285,1.0,1.0,91,0.00,,,0.00,0,WeatherCatV1.02B3,2013-06-03 12:42:00,
2013-06-03 05:47:00,60.1,57.5,29.65,WNW,285,0.0,1.0,91,0.00,,,0.00,0,WeatherCatV1.02B3,2013-06-03 12:47:00,
2013-06-03 05:52:00,60.1,57.5,29.65,WNW,285,0.0,0.0,91,0.00,,,0.00,0,WeatherCatV1.02B3,2013-06-03 12:52:00,
2013-06-03 05:57:00,60.2,57.6,29.65,WNW,285,0.0,0.0,91,0.00,,,0.00,0,WeatherCatV1.02B3,2013-06-03 12:57:00,
2013-06-03 06:02:00,60.3,57.7,29.65,WNW,294,0.0,0.0,91,0.00,,,0.00,0,WeatherCatV1.02B3,2013-06-03 13:02:00,
2013-06-03 06:07:00,60.3,57.7,29.65,WNW,294,0.0,0.0,91,0.00,,,0.00,5,WeatherCatV1.02B3,2013-06-03 13:07:00,
2013-06-03 06:12:00,60.3,57.7,29.65,WNW,294,0.0,0.0,91,0.00,,,0.00,7,WeatherCatV1.02B3,2013-06-03 13:12:00,
2013-06-03 06:17:00,60.4,57.8,29.65,WNW,294,0.0,0.0,91,0.00,,,0.00,9,WeatherCatV1.02B3,2013-06-03 13:17:00,
2013-06-03 06:22:00,60.5,57.9,29.65,WNW,294,0.0,0.0,91,0.00,,,0.00,11,WeatherCatV1.02B3,2013-06-03 13:22:00,
2013-06-03 06:27:00,60.7,58.1,29.65,WNW,294,0.0,0.0,91,0.00,,,0.00,16,WeatherCatV1.02B3,2013-06-03 13:27:00,
2013-06-03 06:32:00,60.7,57.7,29.65,WNW,294,0.0,0.0,90,0.00,,,0.00,19,WeatherCatV1.02B3,2013-06-03 13:32:00,
2013-06-03 06:37:00,60.8,57.8,29.65,WNW,294,0.0,0.0,90,0.00,,,0.00,21,WeatherCatV1.02B3,2013-06-03 13:37:00,
2013-06-03 06:42:00,60.9,57.9,29.65,WNW,294,0.0,0.0,90,0.00,,,0.00,26,WeatherCatV1.02B3,2013-06-03 13:42:00,
2013-06-03 06:47:00,60.9,57.9,29.65,WNW,294,0.0,0.0,90,0.00,,,0.00,28,WeatherCatV1.02B3,2013-06-03 13:47:00,
2013-06-03 06:52:00,61.0,58.0,29.65,WNW,294,0.0,0.0,90,0.00,,,0.00,35,WeatherCatV1.02B3,2013-06-03 13:52:00,
2013-06-03 06:57:00,61.2,58.2,29.65,WNW,294,0.0,0.0,90,0.00,,,0.00,40,WeatherCatV1.02B3,2013-06-03 13:57:00,
2013-06-03 07:02:00,61.3,58.3,29.65,WNW,294,0.0,0.0,90,0.00,,,0.00,46,WeatherCatV1.02B3,2013-06-03 14:02:00,
2013-06-03 07:07:00,61.4,58.1,29.65,WNW,299,0.0,2.0,89,0.00,,,0.00,51,WeatherCatV1.02B3,2013-06-03 14:07:00,
2013-06-03 07:12:00,61.5,58.2,29.58,WNW,299,0.0,0.0,89,0.00,,,0.00,49,WeatherCatV1.02B3,2013-06-03 14:12:00,
2013-06-03 07:17:00,61.6,58.3,29.58,WNW,300,0.0,1.0,89,0.00,,,0.00,53,WeatherCatV1.02B3,2013-06-03 14:17:00,
2013-06-03 07:22:00,61.8,58.2,29.58,WNW,299,0.0,1.0,88,0.00,,,0.00,60,WeatherCatV1.02B3,2013-06-03 14:22:00,
2013-06-03 07:27:00,62.1,58.2,29.58,WNW,300,0.0,1.0,87,0.00,,,0.00,54,WeatherCatV1.02B3,2013-06-03 14:27:00,
2013-06-03 07:32:00,62.3,58.4,29.58,WNW,294,0.0,1.0,87,0.00,,,0.00,54,WeatherCatV1.02B3,2013-06-03 14:32:00,
2013-06-03 07:37:00,62.3,58.1,29.58,East,83,0.0,1.0,86,0.00,,,0.00,58,WeatherCatV1.02B3,2013-06-03 14:37:00,
2013-06-03 07:42:00,62.7,57.8,29.58,South,189,0.0,1.0,84,0.00,,,0.00,63,WeatherCatV1.02B3,2013-06-03 14:42:00,
2013-06-03 07:47:00,63.0,58.4,29.58,East,84,1.0,2.0,85,0.00,,,0.00,63,WeatherCatV1.02B3,2013-06-03 14:47:00,
2013-06-03 07:52:00,62.8,57.9,29.58,North,10,0.0,1.0,84,0.00,,,0.00,67,WeatherCatV1.02B3,2013-06-03 14:52:00,
2013-06-03 07:57:00,62.7,57.8,29.58,SW,221,0.0,2.0,84,0.00,,,0.00,63,WeatherCatV1.02B3,2013-06-03 14:57:00,
2013-06-03 08:02:00,62.6,57.7,29.58,West,271,0.0,1.0,84,0.00,,,0.00,69,WeatherCatV1.02B3,2013-06-03 15:02:00,
2013-06-03 08:07:00,62.7,57.8,29.58,WNW,300,0.0,2.0,84,0.00,,,0.00,77,WeatherCatV1.02B3,2013-06-03 15:07:00,
2013-06-03 08:12:00,62.7,57.8,29.58,NW,326,0.0,1.0,84,0.00,,,0.00,95,WeatherCatV1.02B3,2013-06-03 15:12:00,
2013-06-03 08:17:00,63.2,58.3,29.58,NW,311,0.0,1.0,84,0.00,,,0.00,97,WeatherCatV1.02B3,2013-06-03 15:17:00,
2013-06-03 08:22:00,63.5,57.9,29.58,ENE,76,1.0,2.0,82,0.00,,,0.00,107,WeatherCatV1.02B3,2013-06-03 15:22:00,
2013-06-03 08:27:00,63.6,57.7,29.58,ENE,76,0.0,2.0,81,0.00,,,0.00,90,WeatherCatV1.02B3,2013-06-03 15:27:00,
2013-06-03 08:32:00,63.6,57.7,29.58,East,98,0.0,0.0,81,0.00,,,0.00,90,WeatherCatV1.02B3,2013-06-03 15:32:00,
2013-06-03 08:37:00,63.6,57.7,29.58,WSW,250,0.0,2.0,81,0.00,,,0.00,97,WeatherCatV1.02B3,2013-06-03 15:37:00,
2013-06-03 08:42:00,63.9,57.9,29.58,ENE,76,0.0,2.0,81,0.00,,,0.00,95,WeatherCatV1.02B3,2013-06-03 15:42:00,
2013-06-03 08:47:00,63.7,57.8,29.58,SW,217,0.0,1.0,81,0.00,,,0.00,97,WeatherCatV1.02B3,2013-06-03 15:47:00,
2013-06-03 08:52:00,63.8,57.9,29.58,NW,309,2.0,2.0,81,0.00,,,0.00,100,WeatherCatV1.02B3,2013-06-03 15:52:00,
2013-06-03 08:57:00,63.7,57.4,29.58,NW,309,2.0,2.0,80,0.00,,,0.00,113,WeatherCatV1.02B3,2013-06-03 15:57:00,
2013-06-03 09:02:00,63.9,57.6,29.58,West,271,1.0,3.0,80,0.00,,,0.00,135,WeatherCatV1.02B3,2013-06-03 16:02:00,
2013-06-03 09:07:00,63.9,57.6,29.58,North,350,1.0,2.0,80,0.00,,,0.00,153,WeatherCatV1.02B3,2013-06-03 16:07:00,
2013-06-03 09:12:00,64.3,57.6,29.58,WSW,254,0.0,3.0,79,0.00,,,0.00,163,WeatherCatV1.02B3,2013-06-03 16:12:00,
2013-06-03 09:17:00,64.4,57.4,29.58,WNW,294,1.0,4.0,78,0.00,,,0.00,172,WeatherCatV1.02B3,2013-06-03 16:17:00,
2013-06-03 09:22:00,64.7,57.0,29.58,East,81,0.0,3.0,76,0.00,,,0.00,186,WeatherCatV1.02B3,2013-06-03 16:22:00,
2013-06-03 09:27:00,65.6,57.1,29.58,SE,126,0.0,3.0,74,0.00,,,0.00,204,WeatherCatV1.02B3,2013-06-03 16:27:00,
2013-06-03 09:32:00,66.1,57.2,29.58,ESE,111,0.0,1.0,73,0.00,,,0.00,229,WeatherCatV1.02B3,2013-06-03 16:32:00,
2013-06-03 09:37:00,66.2,56.9,29.58,East,99,1.0,2.0,72,0.00,,,0.00,272,WeatherCatV1.02B3,2013-06-03 16:37:00,
2013-06-03 09:42:00,66.5,56.8,29.58,South,178,2.0,2.0,71,0.00,,,0.00,272,WeatherCatV1.02B3,2013-06-03 16:42:00,
2013-06-03 09:47:00,67.0,57.3,29.58,East,94,1.0,2.0,71,0.00,,,0.00,323,WeatherCatV1.02B3,2013-06-03 16:47:00,
2013-06-03 09:52:00,67.1,57.0,29.58,East,90,1.0,2.0,70,0.00,,,0.00,297,WeatherCatV1.02B3,2013-06-03 16:52:00,
2013-06-03 09:57:00,67.2,57.1,29.58,SSE,162,2.0,2.0,70,0.00,,,0.00,294,WeatherCatV1.02B3,2013-06-03 16:57:00,
2013-06-03 10:02:00,67.0,56.9,29.58,NE,54,0.0,3.0,70,0.00,,,0.00,294,WeatherCatV1.02B3,2013-06-03 17:02:00,
2013-06-03 10:07:00,67.7,56.7,29.58,WSW,251,0.0,3.0,68,0.00,,,0.00,345,WeatherCatV1.02B3,2013-06-03 17:07:00,
2013-06-03 10:12:00,68.1,57.1,29.58,ENE,71,0.0,1.0,68,0.00,,,0.00,334,WeatherCatV1.02B3,2013-06-03 17:12:00,
2013-06-03 10:17:00,68.2,56.8,29.58,East,86,1.0,6.0,67,0.00,,,0.00,345,WeatherCatV1.02B3,2013-06-03 17:17:00,
2013-06-03 10:22:00,68.4,56.6,29.58,SE,130,0.0,4.0,66,0.00,,,0.00,408,WeatherCatV1.02B3,2013-06-03 17:22:00,
2013-06-03 10:27:00,67.8,56.4,29.58,East,80,1.0,5.0,67,0.00,,,0.00,369,WeatherCatV1.02B3,2013-06-03 17:27:00,
2013-06-03 10:32:00,68.6,56.4,29.58,SW,231,1.0,3.0,65,0.00,,,0.00,399,WeatherCatV1.02B3,2013-06-03 17:32:00,
2013-06-03 10:37:00,69.6,57.7,29.58,East,96,2.0,2.0,66,0.00,,,0.00,462,WeatherCatV1.02B3,2013-06-03 17:37:00,
2013-06-03 10:42:00,69.7,57.8,29.58,ESE,117,1.0,4.0,66,0.00,,,0.00,380,WeatherCatV1.02B3,2013-06-03 17:42:00,
2013-06-03 10:47:00,69.5,58.9,29.58,NNW,331,1.0,2.0,69,0.00,,,0.00,448,WeatherCatV1.02B3,2013-06-03 17:47:00,
2013-06-03 10:52:00,70.0,57.7,29.58,SSW,196,3.0,5.0,65,0.00,,,0.00,399,WeatherCatV1.02B3,2013-06-03 17:52:00,
2013-06-03 10:57:00,70.4,58.1,29.58,ESE,107,4.0,5.0,65,0.00,,,0.00,399,WeatherCatV1.02B3,2013-06-03 17:57:00,
2013-06-03 11:02:00,70.7,58.3,29.58,ESE,117,2.0,4.0,65,0.00,,,0.00,529,WeatherCatV1.02B3,2013-06-03 18:02:00,
2013-06-03 11:07:00,71.2,58.4,29.58,West,278,3.0,5.0,64,0.00,,,0.00,700,WeatherCatV1.02B3,2013-06-03 18:07:00,
2013-06-03 11:12:00,71.7,58.0,29.58,SW,218,1.0,4.0,62,0.00,,,0.00,573,WeatherCatV1.02B3,2013-06-03 18:12:00,
2013-06-03 11:17:00,72.1,58.3,29.58,West,269,6.0,7.0,62,0.00,,,0.00,589,WeatherCatV1.02B3,2013-06-03 18:17:00,
2013-06-03 11:22:00,70.6,57.8,29.58,ENE,64,0.0,6.0,64,0.00,,,0.00,471,WeatherCatV1.02B3,2013-06-03 18:22:00,
2013-06-03 11:27:00,70.3,57.5,29.58,WNW,288,8.0,8.0,64,0.00,,,0.00,668,WeatherCatV1.02B3,2013-06-03 18:27:00,
2013-06-03 11:32:00,70.6,58.2,29.58,SE,142,4.0,4.0,65,0.00,,,0.00,566,WeatherCatV1.02B3,2013-06-03 18:32:00,
2013-06-03 11:38:00,72.2,59.3,29.58,ENE,61,3.0,5.0,64,0.00,,,0.00,714,WeatherCatV1.02B3,2013-06-03 18:38:00,
2013-06-03 11:43:00,73.8,59.5,29.58,NNE,28,5.0,5.0,61,0.00,,,0.00,1041,WeatherCatV1.02B3,2013-06-03 18:43:00,
2013-06-03 11:48:00,72.1,59.2,29.58,WNW,282,3.0,6.0,64,0.00,,,0.00,949,WeatherCatV1.02B3,2013-06-03 18:48:00,
2013-06-03 11:53:00,72.2,58.9,29.58,WSW,249,4.0,6.0,63,0.00,,,0.00,967,WeatherCatV1.02B3,2013-06-03 18:53:00,
2013-06-03 11:58:00,71.8,58.1,29.58,WNW,292,0.0,9.0,62,0.00,,,0.00,925,WeatherCatV1.02B3,2013-06-03 18:58:00,
2013-06-03 12:03:00,72.0,58.7,29.58,NE,41,1.0,3.0,63,0.00,,,0.00,916,WeatherCatV1.02B3,2013-06-03 19:03:00,
2013-06-03 12:08:00,71.8,58.1,29.58,East,100,2.0,3.0,62,0.00,,,0.00,886,WeatherCatV1.02B3,2013-06-03 19:08:00,
2013-06-03 12:13:00,72.7,58.9,29.58,ENE,76,2.0,8.0,62,0.00,,,0.00,911,WeatherCatV1.02B3,2013-06-03 19:13:00,
2013-06-03 12:18:00,73.1,58.4,29.58,NNE,18,2.0,3.0,60,0.00,,,0.00,918,WeatherCatV1.02B3,2013-06-03 19:18:00,
2013-06-03 12:23:00,73.9,59.1,29.58,NE,55,4.0,6.0,60,0.00,,,0.00,905,WeatherCatV1.02B3,2013-06-03 19:23:00,
2013-06-03 12:28:00,74.7,58.9,29.58,SW,232,1.0,3.0,58,0.00,,,0.00,928,WeatherCatV1.02B3,2013-06-03 19:28:00,
2013-06-03 12:33:00,73.9,58.2,29.58,NE,51,2.0,5.0,58,0.00,,,0.00,932,WeatherCatV1.02B3,2013-06-03 19:33:00,
2013-06-03 12:38:00,74.8,59.0,29.58,WNW,290,5.0,6.0,58,0.00,,,0.00,939,WeatherCatV1.02B3,2013-06-03 19:38:00,
2013-06-03 12:43:00,75.3,60.0,29.58,NE,36,4.0,7.0,59,0.00,,,0.00,942,WeatherCatV1.02B3,2013-06-03 19:43:00,
2013-06-03 12:48:00,76.2,59.3,29.58,East,96,2.0,6.0,56,0.00,,,0.00,937,WeatherCatV1.02B3,2013-06-03 19:48:00,
2013-06-03 12:53:00,75.7,58.4,29.58,East,81,5.0,7.0,55,0.00,,,0.00,942,WeatherCatV1.02B3,2013-06-03 19:53:00,
2013-06-03 12:58:00,74.4,58.2,29.58,ENE,78,1.0,11.0,57,0.00,,,0.00,928,WeatherCatV1.02B3,2013-06-03 19:58:00,
2013-06-03 13:03:00,73.9,59.1,29.58,East,82,6.0,6.0,60,0.00,,,0.00,930,WeatherCatV1.02B3,2013-06-03 20:03:00,
2013-06-03 13:08:00,75.1,58.8,29.58,NW,313,3.0,3.0,57,0.00,,,0.00,912,WeatherCatV1.02B3,2013-06-03 20:08:00,
2013-06-03 13:13:00,75.9,59.1,29.58,NE,49,2.0,5.0,56,0.00,,,0.00,926,WeatherCatV1.02B3,2013-06-03 20:13:00,
2013-06-03 13:18:00,75.6,58.8,29.58,WNW,298,0.0,6.0,56,0.00,,,0.00,926,WeatherCatV1.02B3,2013-06-03 20:18:00,
2013-06-03 13:23:00,74.7,59.4,29.58,NNE,26,2.0,5.0,59,0.00,,,0.00,918,WeatherCatV1.02B3,2013-06-03 20:23:00,
2013-06-03 13:28:00,75.2,58.9,29.58,ENE,73,2.0,6.0,57,0.00,,,0.00,921,WeatherCatV1.02B3,2013-06-03 20:28:00,
2013-06-03 13:33:00,75.3,58.5,29.58,ENE,74,2.0,8.0,56,0.00,,,0.00,921,WeatherCatV1.02B3,2013-06-03 20:33:00,
2013-06-03 13:38:00,74.9,59.1,29.58,ENE,72,1.0,4.0,58,0.00,,,0.00,923,WeatherCatV1.02B3,2013-06-03 20:38:00,
2013-06-03 13:43:00,75.1,58.3,29.58,NE,55,3.0,8.0,56,0.00,,,0.00,918,WeatherCatV1.02B3,2013-06-03 20:43:00,
2013-06-03 13:48:00,75.2,58.9,29.58,NW,313,3.0,6.0,57,0.00,,,0.00,909,WeatherCatV1.02B3,2013-06-03 20:48:00,
2013-06-03 13:53:00,74.4,58.2,29.58,WSW,249,0.0,7.0,57,0.00,,,0.00,907,WeatherCatV1.02B3,2013-06-03 20:53:00,
2013-06-03 14:09:00,74.7,58.4,29.58,East,80,1.0,5.0,57,0.00,,,0.00,886,WeatherCatV1.02B3,2013-06-03 21:09:00,
2013-06-03 14:14:00,73.5,58.3,29.58,NNW,329,1.0,11.0,59,0.00,,,0.00,884,WeatherCatV1.02B3,2013-06-03 21:14:00,
2013-06-03 14:19:00,73.8,58.1,29.58,East,96,1.0,8.0,58,0.00,,,0.00,877,WeatherCatV1.02B3,2013-06-03 21:19:00,
2013-06-03 14:24:00,75.8,59.0,29.58,West,269,3.0,4.0,56,0.00,,,0.00,874,WeatherCatV1.02B3,2013-06-03 21:24:00,
2013-06-03 14:29:00,75.3,58.0,29.58,NNE,30,2.0,7.0,55,0.00,,,0.00,865,WeatherCatV1.02B3,2013-06-03 21:29:00,
2013-06-03 14:34:00,74.7,57.9,29.58,NE,55,1.0,6.0,56,0.00,,,0.00,870,WeatherCatV1.02B3,2013-06-03 21:34:00,
2013-06-03 14:39:00,74.6,58.3,29.58,ENE,65,3.0,5.0,57,0.00,,,0.00,858,WeatherCatV1.02B3,2013-06-03 21:39:00,
2013-06-03 14:44:00,75.3,58.5,29.58,ENE,78,1.0,4.0,56,0.00,,,0.00,844,WeatherCatV1.02B3,2013-06-03 21:44:00,
2013-06-03 14:49:00,75.2,58.4,29.58,East,100,3.0,7.0,56,0.00,,,0.00,838,WeatherCatV1.02B3,2013-06-03 21:49:00,
2013-06-03 14:54:00,75.1,58.3,29.58,ENE,67,0.0,6.0,56,0.00,,,0.00,830,WeatherCatV1.02B3,2013-06-03 21:54:00,
2013-06-03 14:59:00,75.2,57.9,29.58,SSE,155,3.0,7.0,55,0.00,,,0.00,817,WeatherCatV1.02B3,2013-06-03 21:59:00,
2013-06-03 15:04:00,75.4,58.6,29.58,NNW,331,1.0,4.0,56,0.00,,,0.00,807,WeatherCatV1.02B3,2013-06-03 22:04:00,
2013-06-03 15:09:00,75.4,59.1,29.58,ENE,61,1.0,2.0,57,0.00,,,0.00,800,WeatherCatV1.02B3,2013-06-03 22:09:00,
2013-06-03 15:14:00,74.6,57.8,29.58,East,86,5.0,5.0,56,0.00,,,0.00,791,WeatherCatV1.02B3,2013-06-03 22:14:00,
2013-06-03 15:19:00,74.7,58.4,29.58,ENE,71,4.0,4.0,57,0.00,,,0.00,788,WeatherCatV1.02B3,2013-06-03 22:19:00,
2013-06-03 15:24:00,74.2,58.0,29.58,ENE,63,2.0,7.0,57,0.00,,,0.00,768,WeatherCatV1.02B3,2013-06-03 22:24:00,
2013-06-03 15:29:00,74.8,58.0,29.58,East,80,2.0,2.0,56,0.00,,,0.00,737,WeatherCatV1.02B3,2013-06-03 22:29:00,
2013-06-03 15:34:00,74.5,57.8,29.58,ENE,59,3.0,5.0,56,0.00,,,0.00,752,WeatherCatV1.02B3,2013-06-03 22:34:00,
2013-06-03 15:39:00,74.3,58.5,29.58,SE,126,2.0,4.0,58,0.00,,,0.00,745,WeatherCatV1.02B3,2013-06-03 22:39:00,
2013-06-03 15:44:00,73.9,57.7,29.58,ENE,70,2.0,4.0,57,0.00,,,0.00,729,WeatherCatV1.02B3,2013-06-03 22:44:00,
2013-06-03 15:49:00,74.2,57.5,29.58,ENE,72,3.0,7.0,56,0.00,,,0.00,682,WeatherCatV1.02B3,2013-06-03 22:49:00,
2013-06-03 15:54:00,73.8,57.6,29.58,ENE,61,3.0,5.0,57,0.00,,,0.00,501,WeatherCatV1.02B3,2013-06-03 22:54:00,
2013-06-03 15:59:00,73.2,57.5,29.58,NNW,339,0.0,6.0,58,0.00,,,0.00,700,WeatherCatV1.02B3,2013-06-03 22:59:00,
2013-06-03 16:04:00,73.2,57.0,29.58,NE,52,1.0,5.0,57,0.00,,,0.00,671,WeatherCatV1.02B3,2013-06-03 23:04:00,
2013-06-03 16:09:00,73.5,57.8,29.58,NW,309,1.0,5.0,58,0.00,,,0.00,661,WeatherCatV1.02B3,2013-06-03 23:09:00,
2013-06-03 16:15:00,73.8,57.6,29.58,ENE,65,2.0,4.0,57,0.00,,,0.00,643,WeatherCatV1.02B3,2013-06-03 23:15:00,
2013-06-03 16:20:00,73.5,57.8,29.58,NW,309,1.0,5.0,58,0.00,,,0.00,603,WeatherCatV1.02B3,2013-06-03 23:20:00,
2013-06-03 16:25:00,72.4,57.2,29.58,WNW,284,8.0,9.0,59,0.00,,,0.00,612,WeatherCatV1.02B3,2013-06-03 23:25:00,
2013-06-03 16:30:00,72.3,57.2,29.58,ENE,71,1.0,5.0,59,0.00,,,0.00,599,WeatherCatV1.02B3,2013-06-03 23:30:00,
2013-06-03 16:35:00,72.4,57.7,29.58,SE,130,1.0,9.0,60,0.00,,,0.00,587,WeatherCatV1.02B3,2013-06-03 23:35:00,
2013-06-03 16:40:00,72.4,57.7,29.58,West,270,6.0,10.0,60,0.00,,,0.00,571,WeatherCatV1.02B3,2013-06-03 23:40:00,
2013-06-03 16:45:00,72.3,58.1,29.58,SSW,198,3.0,4.0,61,0.00,,,0.00,381,WeatherCatV1.02B3,2013-06-03 23:45:00,
2013-06-03 16:50:00,72.0,57.8,29.58,SSW,203,3.0,8.0,61,0.00,,,0.00,543,WeatherCatV1.02B3,2013-06-03 23:50:00,
2013-06-03 16:55:00,71.7,57.1,29.58,West,271,3.0,7.0,60,0.00,,,0.00,531,WeatherCatV1.02B3,2013-06-03 23:55:00,
2013-06-03 17:00:00,72.5,57.8,29.58,West,262,7.0,9.0,60,0.00,,,0.00,513,WeatherCatV1.02B3,2013-06-04 00:00:00,
2013-06-03 17:05:00,72.0,57.8,29.58,West,268,2.0,7.0,61,0.00,,,0.00,496,WeatherCatV1.02B3,2013-06-04 00:05:00,
2013-06-03 17:10:00,72.1,57.4,29.58,WSW,257,3.0,4.0,60,0.00,,,0.00,476,WeatherCatV1.02B3,2013-06-04 00:10:00,
2013-06-03 17:15:00,72.2,57.5,29.58,WNW,296,3.0,6.0,60,0.00,,,0.00,466,WeatherCatV1.02B3,2013-06-04 00:15:00,
2013-06-03 17:20:00,71.5,58.2,29.58,WSW,240,3.0,5.0,63,0.00,,,0.00,450,WeatherCatV1.02B3,2013-06-04 00:20:00,
2013-06-03 17:25:00,71.5,57.3,29.58,WSW,257,1.0,7.0,61,0.00,,,0.00,434,WeatherCatV1.02B3,2013-06-04 00:25:00,
2013-06-03 17:30:00,71.5,57.8,29.58,NW,308,1.0,3.0,62,0.00,,,0.00,418,WeatherCatV1.02B3,2013-06-04 00:30:00,
2013-06-03 17:35:00,71.8,57.2,29.58,West,266,2.0,6.0,60,0.00,,,0.00,403,WeatherCatV1.02B3,2013-06-04 00:35:00,
2013-06-03 17:40:00,71.6,57.9,29.58,SW,219,2.0,3.0,62,0.00,,,0.00,385,WeatherCatV1.02B3,2013-06-04 00:40:00,
2013-06-03 17:45:00,71.2,57.0,29.58,WSW,243,2.0,3.0,61,0.00,,,0.00,371,WeatherCatV1.02B3,2013-06-04 00:45:00,
2013-06-03 17:50:00,71.7,57.1,29.58,WSW,244,3.0,3.0,60,0.00,,,0.00,352,WeatherCatV1.02B3,2013-06-04 00:50:00,
2013-06-03 17:55:00,71.3,57.1,29.58,WNW,293,0.0,2.0,61,0.00,,,0.00,339,WeatherCatV1.02B3,2013-06-04 00:55:00,
2013-06-03 18:00:00,71.9,57.2,29.58,West,281,4.0,4.0,60,0.00,,,0.00,322,WeatherCatV1.02B3,2013-06-04 01:00:00,
2013-06-03 18:05:00,71.7,57.5,29.58,West,274,0.0,2.0,61,0.00,,,0.00,306,WeatherCatV1.02B3,2013-06-04 01:05:00,
2013-06-03 18:10:00,72.3,58.1,29.58,West,263,1.0,3.0,61,0.00,,,0.00,288,WeatherCatV1.02B3,2013-06-04 01:10:00,
2013-06-03 18:15:00,72.2,57.1,29.58,East,96,0.0,2.0,59,0.00,,,0.00,271,WeatherCatV1.02B3,2013-06-04 01:15:00,
2013-06-03 18:20:00,71.6,57.0,29.58,NE,46,3.0,3.0,60,0.00,,,0.00,255,WeatherCatV1.02B3,2013-06-04 01:20:00,
2013-06-03 18:25:00,71.2,57.5,29.58,ENE,76,1.0,2.0,62,0.00,,,0.00,239,WeatherCatV1.02B3,2013-06-04 01:25:00,
2013-06-03 18:30:00,71.0,56.9,29.58,ENE,65,0.0,2.0,61,0.00,,,0.00,221,WeatherCatV1.02B3,2013-06-04 01:30:00,
2013-06-03 18:35:00,70.8,57.1,29.58,ESE,113,1.0,2.0,62,0.00,,,0.00,204,WeatherCatV1.02B3,2013-06-04 01:35:00,
2013-06-03 18:40:00,70.5,56.8,29.58,ENE,71,1.0,3.0,62,0.00,,,0.00,188,WeatherCatV1.02B3,2013-06-04 01:40:00,
2013-06-03 18:45:00,70.0,56.8,29.58,East,87,1.0,2.0,63,0.00,,,0.00,169,WeatherCatV1.02B3,2013-06-04 01:45:00,
2013-06-03 18:50:00,69.5,56.8,29.58,ENE,58,1.0,2.0,64,0.00,,,0.00,151,WeatherCatV1.02B3,2013-06-04 01:50:00,
2013-06-03 18:55:00,69.1,56.8,29.58,North,5,1.0,2.0,65,0.00,,,0.00,116,WeatherCatV1.02B3,2013-06-04 01:55:00,
2013-06-03 19:00:00,68.5,56.7,29.58,WNW,290,1.0,5.0,66,0.00,,,0.00,40,WeatherCatV1.02B3,2013-06-04 02:00:00,
2013-06-03 19:05:00,67.7,56.3,29.58,NNE,32,0.0,2.0,67,0.00,,,0.00,37,WeatherCatV1.02B3,2013-06-04 02:05:00,
2013-06-03 19:10:00,67.2,56.7,29.58,NNE,30,1.0,4.0,69,0.00,,,0.00,33,WeatherCatV1.02B3,2013-06-04 02:10:00,
2013-06-03 19:15:00,66.7,56.6,29.58,NE,40,1.0,2.0,70,0.00,,,0.00,32,WeatherCatV1.02B3,2013-06-04 02:15:00,
2013-06-03 19:20:00,66.1,56.4,29.58,NW,315,0.0,2.0,71,0.00,,,0.00,28,WeatherCatV1.02B3,2013-06-04 02:20:00,
2013-06-03 19:25:00,65.8,56.5,29.58,NE,54,0.0,0.0,72,0.00,,,0.00,26,WeatherCatV1.02B3,2013-06-04 02:25:00,
2013-06-03 19:30:00,65.6,56.3,29.58,NE,54,0.0,1.0,72,0.00,,,0.00,23,WeatherCatV1.02B3,2013-06-04 02:30:00,
2013-06-03 19:35:00,65.4,56.1,29.58,NW,304,1.0,2.0,72,0.00,,,0.00,21,WeatherCatV1.02B3,2013-06-04 02:35:00,
2013-06-03 19:40:00,65.0,56.1,29.58,ENE,76,0.0,2.0,73,0.00,,,0.00,18,WeatherCatV1.02B3,2013-06-04 02:40:00,
2013-06-03 19:45:00,64.6,56.1,29.58,WNW,284,0.0,0.0,74,0.00,,,0.00,14,WeatherCatV1.02B3,2013-06-04 02:45:00,
2013-06-03 19:50:00,64.4,56.3,29.58,West,263,0.0,1.0,75,0.00,,,0.00,12,WeatherCatV1.02B3,2013-06-04 02:50:00,
2013-06-03 19:55:00,64.1,56.0,29.58,SW,214,2.0,3.0,75,0.00,,,0.00,9,WeatherCatV1.02B3,2013-06-04 02:55:00,
2013-06-03 20:00:00,63.8,56.1,29.58,West,259,3.0,3.0,76,0.00,,,0.00,7,WeatherCatV1.02B3,2013-06-04 03:00:00,
2013-06-03 20:05:00,63.3,55.6,29.58,WNW,292,3.0,3.0,76,0.00,,,0.00,5,WeatherCatV1.02B3,2013-06-04 03:05:00,
2013-06-03 20:10:00,63.0,55.7,29.58,NW,315,0.0,1.0,77,0.00,,,0.00,0,WeatherCatV1.02B3,2013-06-04 03:10:00,
2013-06-03 20:15:00,62.6,55.6,29.58,NW,318,0.0,0.0,78,0.00,,,0.00,0,WeatherCatV1.02B3,2013-06-04 03:15:00,
2013-06-03 20:20:00,62.3,55.3,29.58,SW,219,0.0,4.0,78,0.00,,,0.00,0,WeatherCatV1.02B3,2013-06-04 03:20:00,
2013-06-03 20:25:00,62.1,55.2,29.58,WNW,288,1.0,4.0,78,0.00,,,0.00,0,WeatherCatV1.02B3,2013-06-04 03:25:00,
2013-06-03 20:30:00,61.9,55.3,29.58,West,281,1.0,3.0,79,0.00,,,0.00,0,WeatherCatV1.02B3,2013-06-04 03:30:00,
2013-06-03 20:35:00,61.5,55.3,29.58,WNW,288,1.0,2.0,80,0.00,,,0.00,0,WeatherCatV1.02B3,2013-06-04 03:35:00,
2013-06-03 20:40:00,61.3,55.1,29.58,WNW,287,1.0,1.0,80,0.00,,,0.00,0,WeatherCatV1.02B3,2013-06-04 03:40:00,
2013-06-03 20:45:00,61.2,55.0,29.58,WSW,237,1.0,7.0,80,0.00,,,0.00,0,WeatherCatV1.02B3,2013-06-04 03:45:00,
2013-06-03 20:50:00,61.4,55.2,29.58,West,271,2.0,2.0,80,0.00,,,0.00,0,WeatherCatV1.02B3,2013-06-04 03:50:00,
2013-06-03 20:55:00,60.8,54.6,29.58,West,271,0.0,0.0,80,0.00,,,0.00,0,WeatherCatV1.02B3,2013-06-04 03:55:00,
2013-06-03 21:00:00,60.6,54.7,29.58,West,272,0.0,1.0,81,0.00,,,0.00,0,WeatherCatV1.02B3,2013-06-04 04:00:00,
2013-06-03 21:01:00,60.7,54.8,29.58,West,272,1.0,1.0,81,0.00,,,0.00,0,WeatherCatV1.02B3,2013-06-04 04:01:00,
2013-06-03 21:06:00,60.8,54.9,29.58,WSW,242,4.0,5.0,81,0.00,,,0.00,0,WeatherCatV1.02B3,2013-06-04 04:06:00,
2013-06-03 21:11:00,60.7,54.8,29.58,West,272,1.0,4.0,81,0.00,,,0.00,0,WeatherCatV1.02B3,2013-06-04 04:11:00,
2013-06-03 21:16:00,60.8,54.9,29.58,WSW,247,0.0,0.0,81,0.00,,,0.00,0,WeatherCatV1.02B3,2013-06-04 04:16:00,
2013-06-03 21:21:00,60.0,54.1,29.58,WSW,246,0.0,0.0,81,0.00,,,0.00,0,WeatherCatV1.02B3,2013-06-04 04:21:00,
2013-06-03 21:26:00,59.6,54.1,29.58,WSW,250,0.0,1.0,82,0.00,,,0.00,0,WeatherCatV1.02B3,2013-06-04 04:26:00,
2013-06-03 21:31:00,59.3,53.8,29.58,WSW,250,0.0,0.0,82,0.00,,,0.00,0,WeatherCatV1.02B3,2013-06-04 04:31:00,
2013-06-03 21:36:00,59.0,53.5,29.58,WSW,250,0.0,0.0,82,0.00,,,0.00,0,WeatherCatV1.02B3,2013-06-04 04:36:00,
2013-06-03 21:41:00,59.0,54.2,29.58,WSW,250,0.0,0.0,84,0.00,,,0.00,0,WeatherCatV1.02B3,2013-06-04 04:41:00,
2013-06-03 21:46:00,58.9,54.1,29.58,WSW,250,0.0,0.0,84,0.00,,,0.00,0,WeatherCatV1.02B3,2013-06-04 04:46:00,
2013-06-03 21:51:00,58.3,53.5,29.58,WSW,250,0.0,0.0,84,0.00,,,0.00,0,WeatherCatV1.02B3,2013-06-04 04:51:00,
2013-06-03 21:56:00,57.9,53.4,29.58,WSW,250,0.0,0.0,85,0.00,,,0.00,0,WeatherCatV1.02B3,2013-06-04 04:56:00,
2013-06-03 22:01:00,57.3,52.5,29.58,WSW,250,0.0,0.0,84,0.00,,,0.00,0,WeatherCatV1.02B3,2013-06-04 05:01:00,
2013-06-03 22:06:00,56.7,52.2,29.58,WSW,250,0.0,0.0,85,0.00,,,0.00,0,WeatherCatV1.02B3,2013-06-04 05:06:00,
2013-06-03 22:11:00,56.7,52.6,29.58,WSW,250,0.0,0.0,86,0.00,,,0.00,0,WeatherCatV1.02B3,2013-06-04 05:11:00,
2013-06-03 22:16:00,56.5,52.7,29.58,WSW,250,0.0,0.0,87,0.00,,,0.00,0,WeatherCatV1.02B3,2013-06-04 05:16:00,
2013-06-03 22:21:00,56.3,52.2,29.58,WSW,250,0.0,0.0,86,0.00,,,0.00,0,WeatherCatV1.02B3,2013-06-04 05:21:00,
2013-06-03 22:26:00,56.1,52.3,29.58,WSW,250,0.0,0.0,87,0.00,,,0.00,0,WeatherCatV1.02B3,2013-06-04 05:26:00,
2013-06-03 22:31:00,56.3,52.5,29.58,WSW,250,0.0,0.0,87,0.00,,,0.00,0,WeatherCatV1.02B3,2013-06-04 05:31:00,
2013-06-03 22:36:00,55.6,51.8,29.58,WSW,250,0.0,0.0,87,0.00,,,0.00,0,WeatherCatV1.02B3,2013-06-04 05:36:00,
2013-06-03 22:41:00,55.5,52.0,29.58,WSW,250,0.0,0.0,88,0.00,,,0.00,0,WeatherCatV1.02B3,2013-06-04 05:41:00,
2013-06-03 22:46:00,55.5,52.0,29.58,WSW,250,0.0,0.0,88,0.00,,,0.00,0,WeatherCatV1.02B3,2013-06-04 05:46:00,
2013-06-03 22:51:00,55.4,52.2,29.58,WSW,250,0.0,0.0,89,0.00,,,0.00,0,WeatherCatV1.02B3,2013-06-04 05:51:00,
2013-06-03 22:56:00,55.4,51.9,29.58,WSW,250,0.0,0.0,88,0.00,,,0.00,0,WeatherCatV1.02B3,2013-06-04 05:56:00,
2013-06-03 23:01:00,55.1,51.6,29.58,WSW,250,0.0,0.0,88,0.00,,,0.00,0,WeatherCatV1.02B3,2013-06-04 06:01:00,
2013-06-03 23:06:00,55.1,51.9,29.58,WSW,250,0.0,0.0,89,0.00,,,0.00,0,WeatherCatV1.02B3,2013-06-04 06:06:00,
2013-06-03 23:11:00,54.9,52.0,29.58,WSW,250,0.0,0.0,90,0.00,,,0.00,0,WeatherCatV1.02B3,2013-06-04 06:11:00,
2013-06-03 23:16:00,54.8,51.9,29.58,WSW,250,0.0,0.0,90,0.00,,,0.00,0,WeatherCatV1.02B3,2013-06-04 06:16:00,
2013-06-03 23:21:00,55.0,52.1,29.58,WSW,250,0.0,0.0,90,0.00,,,0.00,0,WeatherCatV1.02B3,2013-06-04 06:21:00,
2013-06-03 23:26:00,54.7,51.8,29.58,WSW,250,0.0,0.0,90,0.00,,,0.00,0,WeatherCatV1.02B3,2013-06-04 06:26:00,
2013-06-03 23:31:00,54.9,52.0,29.58,WSW,250,0.0,0.0,90,0.00,,,0.00,0,WeatherCatV1.02B3,2013-06-04 06:31:00,
2013-06-03 23:36:00,54.7,52.1,29.58,WSW,250,0.0,0.0,91,0.00,,,0.00,0,WeatherCatV1.02B3,2013-06-04 06:36:00,
2013-06-03 23:41:00,54.9,52.3,29.58,WSW,250,0.0,0.0,91,0.00,,,0.00,0,WeatherCatV1.02B3,2013-06-04 06:41:00,
2013-06-03 23:46:00,55.1,52.5,29.58,WSW,250,0.0,0.0,91,0.00,,,0.00,0,WeatherCatV1.02B3,2013-06-04 06:46:00,
2013-06-03 23:51:00,55.4,52.8,29.58,WSW,250,0.0,0.0,91,0.00,,,0.00,0,WeatherCatV1.02B3,2013-06-04 06:51:00,
2013-06-03 23:56:00,56.0,53.4,29.58,WSW,250,0.0,0.0,91,0.00,,,0.00,0,WeatherCatV1.02B3,2013-06-04 06:56:00,